Погода в Гусином

Россия / Смоленская область     54°42′29″N   31°24′29″E
темп.,
°C
ветер,
м/с
пор.,
м/с
влажн.,
%
обл.,
%
осадки,
мм/ч
давл.,
гПа
погр.,
м
7 мая, пт
пт700:00+3юз411875 0.1 1008286
03:00+2ююз36910 0.1 1009104
06:00+2ююз410895 0.0 1009208
09:00+7ююз597594 0.1 1010555
12:00+11юз685682 0.1 10091687
15:00+12ююз5960100 0.8 10081619
18:00+10юз61075100 1.0 1007978
21:00+7ююв61192100 2.8 10071092
8 мая, сб
сб800:00+7ююв51295100 1.6 1004781
03:00+7юз4897100 1.8 1004388
06:00+6з2597100 0.0 1005193
09:00+7сз4584100 0.1 1005712
12:00+8ссз6880100 0.1 1006942
15:00+9ссз7870100 0.2 10071352
18:00+7ссз61070100 0.1 10081199
21:00+5сз61370100 0.1 1011799
9 мая, вс
вс900:00+4сз61376100 0.0 1013696
03:00+2сз5128651 0.0 1015436
06:00+2сз513864 0.0 1018479
09:00+7сз59600 0.0 10201116
12:00+10сз684827 0.0 10211870
15:00+12сз574419 0.0 10222146
18:00+11сз34515 0.0 10231593
21:00+6зюз116410 0.0 102510
10 мая, пн
пн1000:00+5ююз226933 0.0 102619
03:00+4ююз33715 0.0 102834
06:00+4ююз23755 0.0 102958
09:00+10ююз34615 0.0 1029379
12:00+14ююз34519 0.0 10291248
15:00+16ююз224934 0.0 10281374
18:00+16ю12535 0.0 10281186
21:00+10юв22720 0.0 102813
11 мая, вт
вт1100:00+8юв22740 0.0 102912
03:00+7юв22770 0.0 103019
06:00+6вюв34795 0.0 103065
09:00+12вюв35625 0.0 1029371
12:00+16в46474 0.0 10281049
15:00+18в56435 0.0 10271198
18:00+17вюв47555 0.0 1026812
21:00+11вюв49776 0.0 1026148